{"data":{"norad_id":64690,"intl_designator":"2025-139AC","name":"STARLINK-34250","alt_names":[],"object_type":"PAYLOAD","status":"ACTIVE","operator":null,"country":"US","launch_date":"2025-06-28","launch_site_code":"AFETR","launch_vehicle":null,"mission":null,"orbit_class":"UNKNOWN","rcs_meters":null,"size_class":null,"mass_kg":null,"dimensions":null,"purposes":["comms"],"wikipedia_slug":null,"has_3d_model":false,"image_url":null,"decayed_at":null,"tle_current":{"epoch":"2026-09-20T09:27:52.630560Z","epoch_age_seconds":140812,"freshness":"FRESH","line1":"1 64690U 25139AC  26263.39435915  .00000478  00000+0  25300-4 0  9995","line2":"2 64690  53.1584 298.4410 0000993  86.4328 273.6788 15.34373932 70157","mean_motion":15.34373932,"eccentricity":9.93e-5,"inclination_deg":53.1584,"raan_deg":298.441,"arg_perigee_deg":86.4328,"mean_anomaly_deg":273.6788,"bstar":2.53e-5,"rev_number":7015,"period_min":93.849352492779,"perigee_km":462.10141776394,"apogee_km":463.46002402331,"semimajor_km":6840.9177208936,"source":"CELESTRAK","updated_at":"2026-09-21T09:00:35.402472Z"}}}